TimeEDT,TemperatureF,Dew PointF,Humidity,Sea Level PressureIn,VisibilityMPH,Wind Direction,Wind SpeedMPH,Gust SpeedMPH,PrecipitationIn,Events,Conditions,WindDirDegrees,DateUTC
12:52 AM,39.0,30.0,70,29.93,10.0,Calm,Calm,-,N/A,,Clear,0,2013-03-31 04:52:00
1:52 AM,37.9,30.0,73,29.89,10.0,Calm,Calm,-,N/A,,Clear,0,2013-03-31 05:52:00
2:52 AM,41.0,28.0,60,29.86,10.0,South,4.6,-,N/A,,Partly Cloudy,170,2013-03-31 06:52:00
3:52 AM,41.0,28.9,62,29.83,10.0,South,5.8,-,N/A,,Clear,180,2013-03-31 07:52:00
4:52 AM,42.1,28.9,60,29.81,10.0,South,6.9,-,N/A,,Partly Cloudy,170,2013-03-31 08:52:00
5:52 AM,41.0,30.0,65,29.79,10.0,South,4.6,-,N/A,,Overcast,190,2013-03-31 09:52:00
6:52 AM,42.1,30.9,65,29.77,10.0,SSW,5.8,-,N/A,,Overcast,200,2013-03-31 10:52:00
7:52 AM,43.0,30.9,62,29.77,10.0,SSW,5.8,-,N/A,,Overcast,200,2013-03-31 11:52:00
8:52 AM,45.0,32.0,60,29.76,10.0,SSW,6.9,-,0.00,,Overcast,210,2013-03-31 12:52:00
9:52 AM,46.0,36.0,68,29.74,9.0,WSW,15.0,19.6,0.00,Rain,Light Rain,240,2013-03-31 13:52:00
10:52 AM,45.0,39.9,82,29.75,6.0,WSW,11.5,-,0.00,,Haze,240,2013-03-31 14:52:00
11:05 AM,44.6,39.2,81,29.73,6.0,WSW,9.2,-,N/A,,Haze,240,2013-03-31 15:05:00
11:52 AM,46.0,41.0,83,29.75,7.0,WSW,11.5,-,N/A,,Overcast,250,2013-03-31 15:52:00
12:52 PM,46.9,41.0,80,29.74,6.0,WSW,13.8,-,N/A,,Haze,250,2013-03-31 16:52:00
1:41 PM,50.0,42.8,76,29.71,9.0,WSW,12.7,-,N/A,,Overcast,240,2013-03-31 17:41:00
1:52 PM,52.0,42.1,69,29.72,10.0,WSW,16.1,-,N/A,,Overcast,240,2013-03-31 17:52:00
2:09 PM,53.6,39.2,58,29.70,10.0,WSW,16.1,21.9,N/A,,Scattered Clouds,250,2013-03-31 18:09:00
2:34 PM,53.6,37.4,54,29.69,10.0,West,17.3,21.9,N/A,,Mostly Cloudy,270,2013-03-31 18:34:00
2:42 PM,55.4,37.4,51,29.69,10.0,WSW,17.3,-,N/A,,Mostly Cloudy,250,2013-03-31 18:42:00
2:52 PM,55.9,36.0,47,29.70,10.0,West,16.1,24.2,N/A,,Scattered Clouds,270,2013-03-31 18:52:00
3:52 PM,57.9,33.1,39,29.67,10.0,West,13.8,24.2,N/A,,Scattered Clouds,280,2013-03-31 19:52:00
4:52 PM,60.1,28.9,31,29.65,10.0,West,20.7,31.1,N/A,,Partly Cloudy,270,2013-03-31 20:52:00
5:52 PM,57.9,27.0,31,29.65,10.0,West,17.3,27.6,N/A,,Scattered Clouds,280,2013-03-31 21:52:00
6:52 PM,57.0,28.0,33,29.65,10.0,West,15.0,26.5,N/A,,Overcast,260,2013-03-31 22:52:00
7:52 PM,54.0,30.0,40,29.66,10.0,West,12.7,-,0.00,,Mostly Cloudy,270,2013-03-31 23:52:00
8:52 PM,51.1,30.9,46,29.68,10.0,WNW,5.8,-,0.00,,Mostly Cloudy,290,2013-04-01 00:52:00
9:52 PM,50.0,33.1,52,29.68,10.0,WSW,5.8,-,0.00,,Mostly Cloudy,250,2013-04-01 01:52:00
10:52 PM,48.9,34.0,56,29.70,10.0,West,12.7,19.6,N/A,,Partly Cloudy,280,2013-04-01 02:52:00
11:52 PM,44.1,30.9,60,29.73,10.0,West,19.6,25.3,N/A,,Partly Cloudy,280,2013-04-01 03:52:00